| time (UTC) | temp F | wind direction | speed knots | gust knots | rain 1hr in | rain 24hr in | rain mn in | humidity % | barometer mb |
| 20260506170020 | 72 | 198 | 0.0 | 0.0 | 0.00 | 0.00 | 0.00 | 42 | 1005.3 |
| 20260506164519 | 73 | 198 | 0.0 | 0.0 | 0.00 | 0.00 | 0.00 | 41 | 1005.2 |
| 20260506163036 | 73 | 198 | 0.0 | 0.0 | 0.00 | 0.00 | 0.00 | 40 | 1005.1 |
| 20260506161519 | 74 | 198 | 0.0 | 0.0 | 0.00 | 0.00 | 0.00 | 39 | 1005.1 |
| 20260506160018 | 76 | 198 | 0.0 | 0.0 | 0.00 | 0.00 | 0.00 | 37 | 1005.1 |
| 20260506154524 | 77 | 194 | 0.0 | 0.0 | 0.00 | 0.00 | 0.00 | 36 | 1004.9 |
| 20260506153017 | 78 | 194 | 0.0 | 1.7 | 0.00 | 0.00 | 0.00 | 36 | 1004.9 |
| 20260506151516 | 78 | 200 | 0.0 | 0.0 | 0.00 | 0.00 | 0.00 | 35 | 1005.1 |
| 20260506150017 | 77 | 264 | 0.9 | 3.5 | 0.00 | 0.00 | 0.00 | 35 | 1005.1 |
| 20260506144517 | 77 | 278 | 0.0 | 7.0 | 0.00 | 0.00 | 0.00 | 36 | 1005.1 |
| 20260506143017 | 77 | 272 | 0.0 | 3.5 | 0.00 | 0.00 | 0.00 | 36 | 1005.1 |
| 20260506141515 | 78 | 322 | 0.9 | 7.8 | 0.00 | 0.00 | 0.00 | 35 | 1005.0 |
| 20260506140015 | 79 | 267 | 0.9 | 7.8 | 0.00 | 0.00 | 0.00 | 35 | 1004.8 |
| 20260506134515 | 79 | 247 | 0.0 | 4.3 | 0.00 | 0.00 | 0.00 | 34 | 1005.0 |
| 20260506133015 | 79 | 281 | 0.0 | 5.2 | 0.00 | 0.00 | 0.00 | 34 | 1004.9 |
| 20260506131517 | 80 | 283 | 0.0 | 7.0 | 0.00 | 0.00 | 0.00 | 33 | 1004.9 |
| 20260506130015 | 82 | 289 | 0.9 | 7.8 | 0.00 | 0.00 | 0.00 | 31 | 1004.8 |
| 20260506124512 | 81 | 305 | 0.9 | 9.6 | 0.00 | 0.00 | 0.00 | 31 | 1004.9 |
| 20260506123011 | 81 | 285 | 2.6 | 12.2 | 0.00 | 0.00 | 0.00 | 31 | 1005.1 |
| 20260506121509 | 81 | 287 | 4.3 | 9.6 | 0.00 | 0.00 | 0.00 | 32 | 1005.1 |
| 20260506120008 | 81 | 277 | 2.6 | 10.4 | 0.00 | 0.00 | 0.00 | 30 | 1005.3 |
| 20260506114508 | 81 | 243 | 2.6 | 11.3 | 0.00 | 0.00 | 0.00 | 31 | 1005.4 |
| 20260506113008 | 81 | 345 | 3.5 | 12.2 | 0.00 | 0.00 | 0.00 | 31 | 1005.5 |
| 20260506111504 | 80 | 278 | 1.7 | 9.6 | 0.00 | 0.00 | 0.00 | 32 | 1005.5 |
| 20260506110005 | 80 | 232 | 2.6 | 12.2 | 0.00 | 0.00 | 0.00 | 32 | 1005.7 |
| 20260506104502 | 79 | 226 | 1.7 | 8.7 | 0.00 | 0.00 | 0.00 | 33 | 1005.9 |
| 20260506103002 | 80 | 299 | 0.9 | 8.7 | 0.00 | 0.00 | 0.00 | 33 | 1006.0 |
| 20260506101600 | 81 | 268 | 0.0 | 10.4 | 0.00 | 0.00 | 0.00 | 31 | 1006.0 |
| 20260506100058 | 81 | 287 | 0.9 | 7.8 | 0.00 | 0.00 | 0.00 | 33 | 1006.0 |
| 20260506094557 | 80 | 203 | 0.9 | 8.7 | 0.00 | 0.00 | 0.00 | 34 | 1006.1 |
| 20260506093110 | 80 | 236 | 0.9 | 9.6 | 0.00 | 0.00 | 0.00 | 34 | 1006.2 |
| 20260506091553 | 79 | 245 | 0.9 | 6.1 | 0.00 | 0.00 | 0.00 | 36 | 1006.3 |
| 20260506090058 | 80 | 263 | 0.9 | 12.2 | 0.00 | 0.00 | 0.00 | 35 | 1006.5 |
| 20260506084550 | 80 | 179 | 1.7 | 7.8 | 0.00 | 0.00 | 0.00 | 35 | 1006.5 |
| 20260506083047 | 80 | 255 | 0.0 | 7.0 | 0.00 | 0.00 | 0.00 | 36 | 1006.6 |
| 20260506081545 | 79 | 278 | 0.9 | 4.3 | 0.00 | 0.00 | 0.00 | 37 | 1006.7 |
| 20260506073040 | 77 | 209 | 0.0 | 4.3 | 0.00 | 0.00 | 0.00 | 41 | 1007.0 |
| 20260506071535 | 76 | 212 | 0.9 | 4.3 | 0.00 | 0.00 | 0.00 | 43 | 1007.2 |
| 20260506061527 | 73 | 155 | 0.0 | 5.2 | 0.00 | 0.00 | 0.00 | 45 | 1007.5 |
| 20260506044515 | 68 | 268 | 0.0 | 3.5 | 0.00 | 0.00 | 0.00 | 50 | 1007.6 |
| 20260506043008 | 67 | 222 | 0.0 | 4.3 | 0.00 | 0.00 | 0.00 | 52 | 1007.5 |
| 20260506041505 | 66 | 260 | 0.0 | 5.2 | 0.00 | 0.00 | 0.00 | 53 | 1007.5 |
| 20260506040003 | 66 | 296 | 0.0 | 4.3 | 0.00 | 0.00 | 0.00 | 53 | 1007.6 |
| 20260506034606 | 65 | 167 | 0.0 | 1.7 | 0.00 | 0.00 | 0.00 | 54 | 1007.4 |
| 20260506033058 | 64 | 201 | 0.0 | 5.2 | 0.00 | 0.00 | 0.00 | 55 | 1007.2 |
| 20260506031600 | 63 | 204 | 0.0 | 0.9 | 0.00 | 0.00 | 0.00 | 56 | 1007.3 |
| 20260506030057 | 62 | 222 | 0.0 | 3.5 | 0.00 | 0.00 | 0.00 | 57 | 1007.3 |
| 20260506024603 | 61 | 200 | 0.0 | 2.6 | 0.00 | 0.00 | 0.00 | 59 | 1007.2 |
| 20260506023057 | 60 | 189 | 0.0 | 0.9 | 0.00 | 0.00 | 0.00 | 60 | 1007.1 |
| 20260506021555 | 59 | 201 | 0.0 | 0.0 | 0.00 | 0.00 | 0.00 | 62 | 1007.2 |
| 20260506020118 | 58 | 196 | 0.0 | 0.0 | 0.00 | 0.00 | 0.00 | 64 | 1007.0 |
| 20260506014551 | 58 | 196 | 0.0 | 0.0 | 0.00 | 0.00 | 0.00 | 65 | 1007.0 |
| 20260506013051 | 57 | 196 | 0.0 | 0.0 | 0.00 | 0.00 | 0.00 | 65 | 1006.9 |
| 20260506011551 | 56 | 196 | 0.0 | 0.0 | 0.00 | 0.00 | 0.00 | 66 | 1006.8 |
| 20260506010051 | 56 | 196 | 0.0 | 0.0 | 0.00 | 0.00 | 0.00 | 66 | 1006.8 |
| 20260506004549 | 56 | 196 | 0.0 | 0.0 | 0.00 | 0.00 | 0.00 | 66 | 1006.7 |
| 20260506003048 | 57 | 195 | 0.0 | 0.0 | 0.00 | 0.00 | 0.00 | 65 | 1006.7 |
| 20260506001554 | 57 | 195 | 0.0 | 0.0 | 0.00 | 0.00 | 0.00 | 64 | 1006.7 |
| 20260506000056 | 58 | 196 | 0.0 | 0.0 | 0.00 | 0.00 | 0.00 | 62 | 1006.7 |
| 20260505234543 | 59 | 196 | 0.0 | 0.0 | 0.00 | 0.00 | 0.00 | 59 | 1006.7 |
| 20260505233044 | 59 | 195 | 0.0 | 0.0 | 0.00 | 0.00 | 0.00 | 59 | 1006.7 |
| 20260505231538 | 60 | 195 | 0.0 | 0.0 | 0.00 | 0.00 | 0.00 | 58 | 1006.7 |
| 20260505230042 | 60 | 194 | 0.0 | 0.0 | 0.00 | 0.00 | 0.00 | 58 | 1006.7 |
| 20260505224543 | 61 | 220 | 0.0 | 0.0 | 0.00 | 0.00 | 0.00 | 57 | 1006.8 |
| 20260505223037 | 61 | 221 | 0.0 | 1.7 | 0.00 | 0.00 | 0.00 | 57 | 1006.8 |
| 20260505221530 | 61 | 197 | 0.0 | 0.9 | 0.00 | 0.00 | 0.00 | 57 | 1006.9 |
| 20260505220028 | 62 | 185 | 0.0 | 0.9 | 0.00 | 0.00 | 0.00 | 56 | 1006.8 |
| 20260505214528 | 62 | 230 | 0.0 | 0.9 | 0.00 | 0.00 | 0.00 | 56 | 1006.7 |
| 20260505213029 | 62 | 212 | 0.0 | 3.5 | 0.00 | 0.00 | 0.00 | 57 | 1006.8 |
| 20260505211531 | 62 | 208 | 0.0 | 0.0 | 0.00 | 0.00 | 0.00 | 57 | 1006.8 |
| 20260505210023 | 63 | 208 | 0.0 | 4.3 | 0.00 | 0.00 | 0.00 | 56 | 1006.8 |
| 20260505204523 | 63 | 203 | 0.0 | 3.5 | 0.00 | 0.00 | 0.00 | 56 | 1006.8 |
| 20260505203021 | 63 | 207 | 0.0 | 1.7 | 0.00 | 0.00 | 0.00 | 56 | 1006.9 |
| 20260505201518 | 64 | 210 | 0.0 | 0.9 | 0.00 | 0.00 | 0.00 | 55 | 1006.8 |
| 20260505200017 | 64 | 212 | 0.0 | 0.9 | 0.00 | 0.00 | 0.00 | 54 | 1006.9 |
| 20260505194516 | 65 | 213 | 0.0 | 2.6 | 0.00 | 0.00 | 0.00 | 54 | 1006.9 |
| 20260505193015 | 65 | 210 | 0.0 | 0.9 | 0.00 | 0.00 | 0.00 | 53 | 1006.9 |
| 20260505191518 | 65 | 197 | 0.0 | 0.0 | 0.00 | 0.00 | 0.00 | 53 | 1006.9 |
| 20260505190015 | 65 | 206 | 0.0 | 0.0 | 0.00 | 0.00 | 0.00 | 52 | 1006.9 |
| 20260505184514 | 65 | 199 | 0.0 | 0.0 | 0.00 | 0.00 | 0.00 | 52 | 1006.9 |
| 20260505183015 | 65 | 197 | 0.0 | 1.7 | 0.00 | 0.00 | 0.00 | 52 | 1007.0 |
| 20260505181513 | 66 | 218 | 0.0 | 0.0 | 0.00 | 0.00 | 0.00 | 51 | 1007.0 |
| 20260505180013 | 67 | 218 | 0.0 | 0.0 | 0.00 | 0.00 | 0.00 | 49 | 1007.0 |
| 20260505174518 | 67 | 218 | 0.0 | 0.0 | 0.00 | 0.00 | 0.00 | 48 | 1007.0 |
| 20260505173012 | 68 | 218 | 0.0 | 0.0 | 0.00 | 0.00 | 0.00 | 47 | 1007.0 |
| 20260505171517 | 68 | 218 | 0.0 | 0.0 | 0.00 | 0.00 | 0.00 | 46 | 1006.9 |